FW7812 Weather Reports


time (UTC)temp
C
wind
direction
speed
KPH
gust
KPH
rain 1hr
cm
rain 24hr
cm
rain mn
cm
humidity
%
barometer
mb
20260504081720 3 9 0.0 0.0 0.00 0.00 0.00 93 1018.6
20260504081216 4 9 0.0 1.6 0.00 0.00 0.00 93 1018.7
20260504080713 4 9 0.0 0.0 0.00 0.00 0.00 93 1018.8
20260504080209 3 9 0.0 0.0 0.00 0.00 0.00 93 1018.7
20260504070137 4 9 0.0 0.0 0.00 0.00 0.00 92 1018.8
20260504050526 5 9 0.0 0.0 0.00 0.00 0.00 90 1019.6
20260504050023 5 9 0.0 0.0 0.00 0.00 0.00 90 1019.5
20260504045520 5 9 0.0 0.0 0.00 0.00 0.00 90 1019.3
20260504045015 5 9 0.0 1.6 0.00 0.00 0.00 89 1019.5
20260504044513 5 9 0.0 0.0 0.00 0.00 0.00 89 1019.3
20260504044009 6 9 0.0 0.0 0.00 0.00 0.00 89 1019.4
20260504043506 6 9 0.0 0.0 0.00 0.00 0.00 89 1019.4
20260504043004 6 9 0.0 0.0 0.00 0.00 0.00 88 1019.3
20260504042500 6 9 0.0 0.0 0.00 0.00 0.00 88 1019.1
20260504041957 6 9 0.0 0.0 0.00 0.00 0.00 88 1019.3
20260504041453 6 9 0.0 0.0 0.00 0.00 0.00 87 1019.1
20260504040949 6 9 0.0 1.6 0.00 0.00 0.00 87 1019.1
20260504040447 6 9 0.0 1.6 0.00 0.00 0.00 87 1019.1
20260504035943 6 9 0.0 0.0 0.00 0.00 0.00 88 1019.1
20260504035441 6 9 0.0 0.0 0.00 0.00 0.00 87 1019.0
20260504034937 6 9 0.0 1.6 0.00 0.00 0.00 87 1018.9
20260504034434 6 9 0.0 0.0 0.00 0.00 0.00 87 1018.7
20260504033931 6 9 0.0 0.0 0.00 0.00 0.00 86 1018.8
20260504033429 6 9 0.0 0.0 0.00 0.00 0.00 86 1018.7
20260504032926 6 9 0.0 1.6 0.00 0.00 0.00 85 1018.6
20260504032423 6 9 0.0 0.0 0.00 0.00 0.00 85 1018.5
20260504031919 7 9 0.0 0.0 0.00 0.00 0.00 85 1018.9
20260504031417 7 9 0.0 0.0 0.00 0.00 0.00 85 1019.2
20260504030913 7 9 0.0 0.0 0.00 0.00 0.00 84 1018.9
20260504030410 7 9 0.0 0.0 0.00 0.00 0.00 85 1018.8
20260504025906 7 9 0.0 0.0 0.00 0.00 0.00 84 1018.8
20260504025403 7 9 0.0 0.0 0.00 0.00 0.00 84 1019.0
20260504024900 7 9 0.0 0.0 0.00 0.00 0.00 84 1019.0
20260504024356 7 9 0.0 0.0 0.00 0.00 0.00 83 1019.0
20260504023854 7 9 0.0 0.0 0.00 0.00 0.00 83 1018.9
20260504023350 7 9 0.0 0.0 0.00 0.00 0.00 84 1018.9
20260504022846 8 9 0.0 0.0 0.00 0.00 0.00 83 1018.9
20260504022343 8 9 0.0 0.0 0.00 0.00 0.00 82 1018.8
20260504021839 8 9 0.0 0.0 0.00 0.00 0.00 81 1018.7
20260504021337 8 9 0.0 0.0 0.00 0.00 0.00 80 1018.7
20260504020834 8 9 0.0 0.0 0.00 0.00 0.00 79 1018.6
20260504020331 8 9 0.0 0.0 0.00 0.00 0.00 79 1018.8
20260504015826 8 9 0.0 0.0 0.00 0.00 0.00 78 1018.6
20260504015323 9 9 0.0 0.0 0.00 0.00 0.00 78 1018.5
20260504014819 9 9 0.0 0.0 0.00 0.00 0.00 77 1018.6
20260504014315 9 9 0.0 0.0 0.00 0.00 0.00 77 1018.4
20260504013813 9 9 0.0 0.0 0.00 0.00 0.00 76 1018.4
20260504013311 10 9 0.0 0.0 0.00 0.00 0.00 76 1018.6
20260504012807 10 9 0.0 0.0 0.00 0.00 0.00 74 1018.4
20260504012305 10 9 0.0 0.0 0.00 0.00 0.00 74 1018.4
20260504011802 10 9 0.0 0.0 0.00 0.00 0.00 72 1018.2
20260504011258 10 9 0.0 0.0 0.00 0.00 0.00 72 1018.2
20260504010754 11 9 0.0 0.0 0.00 0.00 0.00 70 1018.1
20260504010250 11 9 0.0 0.0 0.00 0.00 0.00 69 1017.9
20260504005747 11 9 0.0 0.0 0.00 0.00 0.00 68 1018.1
20260504005244 11 9 0.0 0.0 0.00 0.00 0.00 66 1018.0
20260504004742 11 9 0.0 0.0 0.00 0.00 0.00 63 1017.9
20260504004239 12 9 0.0 0.0 0.00 0.00 0.00 64 1018.0
20260504003735 12 9 0.0 0.0 0.00 0.00 0.00 61 1017.8
20260504003232 12 9 0.0 0.0 0.00 0.00 0.00 59 1017.6
20260504002729 12 9 0.0 0.0 0.00 0.00 0.00 61 1017.7
20260504002226 13 9 0.0 0.0 0.00 0.00 0.00 60 1017.8
20260504001724 13 9 0.0 0.0 0.00 0.00 0.00 58 1017.5
20260504001221 13 9 0.0 0.0 0.00 0.00 0.00 55 1017.6
20260504000717 13 9 0.0 0.0 0.00 0.00 0.00 55 1017.7
20260504000214 13 9 0.0 0.0 0.00 0.00 0.00 54 1017.6
20260503235713 14 9 0.0 0.0 0.00 0.00 0.00 53 1017.7
20260503235209 14 9 0.0 0.0 0.00 0.00 0.00 55 1017.6
20260503234706 15 9 0.0 1.6 0.00 0.00 0.00 50 1017.7
20260503234205 15 9 0.0 0.0 0.00 0.00 0.00 55 1017.7
20260503233702 15 9 0.0 0.0 0.00 0.00 0.00 51 1017.7
20260503233157 15 9 0.0 0.0 0.00 0.00 0.00 52 1017.6
20260503232654 15 9 0.0 0.0 0.00 0.00 0.00 52 1017.9
20260503232151 15 9 0.0 0.0 0.00 0.00 0.00 50 1017.5
20260503231650 15 9 0.0 0.0 0.00 0.00 0.00 51 1017.6
20260503231145 16 9 0.0 0.0 0.00 0.00 0.00 50 1017.5
20260503230642 16 9 0.0 3.2 0.00 0.00 0.00 46 1017.5
20260503230140 16 9 0.0 1.6 0.00 0.00 0.00 48 1017.7
20260503225637 16 9 0.0 0.0 0.00 0.00 0.00 45 1017.4
20260503225137 16 9 0.0 0.0 0.00 0.00 0.00 43 1017.5
20260503224634 16 9 1.6 3.2 0.00 0.00 0.00 44 1017.5
20260503224132 16 9 1.6 3.2 0.00 0.00 0.00 43 1017.5
20260503223630 16 9 1.6 3.2 0.00 0.00 0.00 43 1017.6
20260503223126 17 9 0.0 1.6 0.00 0.00 0.00 43 1017.2
20260503222623 17 9 0.0 1.6 0.00 0.00 0.00 41 1017.6
20260503222121 17 9 0.0 1.6 0.00 0.00 0.00 42 1017.2
20260503221619 17 9 0.0 1.6 0.00 0.00 0.00 42 1017.5
20260503221116 17 9 0.0 1.6 0.00 0.00 0.00 41 1017.4
20260503220613 17 9 1.6 3.2 0.00 0.00 0.00 40 1017.6
20260503220110 17 9 0.0 1.6 0.00 0.00 0.00 42 1017.6
20260503215607 18 9 1.6 3.2 0.00 0.00 0.00 41 1017.5
20260503215103 18 9 0.0 1.6 0.00 0.00 0.00 43 1017.5
20260503214602 18 9 0.0 0.0 0.00 0.00 0.00 40 1017.6
20260503214058 18 9 0.0 0.0 0.00 0.00 0.00 43 1017.5
20260503213557 18 9 0.0 1.6 0.00 0.00 0.00 40 1017.8
20260503213053 18 9 0.0 1.6 0.00 0.00 0.00 40 1017.6
20260503212550 18 9 1.6 3.2 0.00 0.00 0.00 42 1017.6
20260503212048 18 9 1.6 3.2 0.00 0.00 0.00 41 1017.7
20260503211545 19 9 1.6 3.2 0.00 0.00 0.00 40 1017.8
20260503211040 19 9 1.6 3.2 0.00 0.00 0.00 42 1017.8
20260503210537 19 9 0.0 3.2 0.00 0.00 0.00 41 1017.9
20260503210033 19 9 1.6 3.2 0.00 0.00 0.00 42 1017.9
20260503205530 19 9 0.0 1.6 0.00 0.00 0.00 43 1017.7
20260503205026 18 9 1.6 3.2 0.00 0.00 0.00 43 1017.8
20260503204523 18 9 3.2 3.2 0.00 0.00 0.00 42 1017.8
20260503204020 18 9 0.0 3.2 0.00 0.00 0.00 41 1017.9
20260503203517 18 9 0.0 0.0 0.00 0.00 0.00 41 1018.0
20260503203014 19 9 0.0 1.6 0.00 0.00 0.00 41 1018.1
20260503202512 20 9 1.6 1.6 0.00 0.00 0.00 42 1018.2
20260503202010 19 9 0.0 3.2 0.00 0.00 0.00 43 1018.2
20260503201508 18 9 0.0 1.6 0.00 0.00 0.00 45 1018.1
20260503201005 18 9 1.6 1.6 0.00 0.00 0.00 40 1018.2
20260503200501 19 9 1.6 3.2 0.00 0.00 0.00 41 1018.5
20260503195957 19 9 0.0 1.6 0.00 0.00 0.00 41 1018.7
20260503195455 20 9 0.0 3.2 0.00 0.00 0.00 37 1018.8
20260503194951 19 9 0.0 3.2 0.00 0.00 0.00 39 1018.7
20260503194449 20 8 1.6 1.6 0.00 0.00 0.00 39 1018.7
20260503193944 19 9 1.6 1.6 0.00 0.00 0.00 39 1018.9
20260503193439 18 9 1.6 4.8 0.00 0.00 0.00 40 1018.9
20260503192935 18 9 1.6 3.2 0.00 0.00 0.00 38 1018.9
20260503192432 18 9 1.6 1.6 0.00 0.00 0.00 39 1019.1
20260503191927 18 9 0.0 1.6 0.00 0.00 0.00 38 1018.9
20260503191425 18 9 0.0 0.0 0.00 0.00 0.00 39 1019.0
20260503190921 17 9 0.0 3.2 0.00 0.00 0.00 41 1019.3
20260503190419 18 9 0.0 3.2 0.00 0.00 0.00 40 1019.4
20260503185916 17 8 3.2 3.2 0.00 0.00 0.00 41 1019.2
20260503185412 17 9 0.0 1.6 0.00 0.00 0.00 39 1019.4
20260503184911 18 9 0.0 4.8 0.00 0.00 0.00 38 1019.4
20260503184408 18 9 0.0 1.6 0.00 0.00 0.00 40 1019.6
20260503183905 18 8 0.0 1.6 0.00 0.00 0.00 41 1019.6
20260503183401 17 8 0.0 1.6 0.00 0.00 0.00 39 1019.6
20260503182858 17 8 0.0 3.2 0.00 0.00 0.00 38 1019.4
20260503182357 17 9 1.6 3.2 0.00 0.00 0.00 39 1019.7
20260503181853 17 9 0.0 1.6 0.00 0.00 0.00 39 1019.6
20260503181351 17 8 0.0 3.2 0.00 0.00 0.00 39 1019.8
20260503180847 17 8 1.6 1.6 0.00 0.00 0.00 40 1019.8
20260503180345 16 8 0.0 3.2 0.00 0.00 0.00 40 1019.8
20260503175842 17 8 3.2 3.2 0.00 0.00 0.00 40 1019.9
20260503175340 16 8 1.6 3.2 0.00 0.00 0.00 40 1019.9
20260503174835 16 8 1.6 4.8 0.00 0.00 0.00 42 1019.8
20260503174333 16 8 1.6 3.2 0.00 0.00 0.00 40 1019.9
20260503173828 16 8 1.6 1.6 0.00 0.00 0.00 41 1019.8
20260503173325 16 8 0.0 1.6 0.00 0.00 0.00 41 1019.9
20260503172822 16 8 0.0 1.6 0.00 0.00 0.00 46 1020.3
20260503172319 16 8 1.6 1.6 0.00 0.00 0.00 45 1020.3
20260503171815 16 9 0.0 3.2 0.00 0.00 0.00 44 1020.6
20260503171312 16 8 1.6 1.6 0.00 0.00 0.00 45 1020.2
20260503170809 16 8 0.0 3.2 0.00 0.00 0.00 45 1020.5
20260503170306 15 8 1.6 3.2 0.00 0.00 0.00 45 1020.5
20260503150658 11 134 0.0 1.6 0.00 0.00 0.00 57 1021.3
20260503150154 11 136 1.6 3.2 0.00 0.00 0.00 57 1021.4
20260503140119 10 101 1.6 1.6 0.00 0.00 0.00 74 1021.4
20260503131048 7 100 0.0 0.0 0.00 0.00 0.00 89 1021.2
20260503130545 7 100 0.0 0.0 0.00 0.00 0.00 91 1021.3
20260503110436 2 99 0.0 0.0 0.00 0.00 0.00 94 1020.1